Total_Precipitation_Accumulation
0.59 0.56 0.53 0.55 0.60 0.67 0.73 0.83 0.92 1.08 1.18 1.24 1.36 1.56 1.73 1.88 1.97 2.02 1.89 1.75 1.72 1.88 2.03 1.95 2.03 2.04 1.90 1.89 1.94 1.98 1.94 1.76 1.62 1.67 1.57 1.32 1.14 1.21 1.18 1.18 1.23 1.23 1.32
0.44 0.40 0.36 0.39 0.44 0.45 0.50 0.61 0.74 0.82 0.95 1.12 1.38 1.59 1.87 1.95 2.03 2.10 2.09 2.00 1.94 2.09 2.13 2.21 2.30 2.33 2.34 2.27 2.16 2.26 2.40 2.14 1.90 2.01 2.29 1.92 1.58 1.23 1.00 1.12 1.20 1.25 1.48
0.29 0.24 0.24 0.31 0.38 0.37 0.40 0.48 0.61 0.77 1.01 1.25 1.57 1.84 2.12 2.23 2.29 2.25 2.26 2.25 2.26 2.31 2.35 2.41 2.46 2.48 2.34 2.33 2.45 2.58 2.90 2.70 2.33 2.12 2.40 2.25 1.95 1.66 1.22 1.10 1.19 1.27 1.41
0.27 0.26 0.25 0.27 0.30 0.34 0.40 0.53 0.73 0.94 1.23 1.57 1.93 2.19 2.46 2.60 2.44 2.41 2.41 2.37 2.29 2.29 2.40 2.40 2.38 2.35 2.29 2.36 2.43 2.50 2.92 3.12 2.82 2.47 2.05 1.83 1.81 1.92 1.67 1.24 1.18 1.27 1.29
0.33 0.31 0.33 0.34 0.39 0.47 0.55 0.74 1.00 1.31 1.60 1.86 2.04 2.29 2.42 2.44 2.39 2.36 2.36 2.27 2.22 2.19 2.20 2.19 2.28 2.29 2.32 2.38 2.55 2.69 2.97 3.00 2.99 2.80 2.57 2.33 2.01 1.69 1.79 1.75 1.45 1.38 1.29
0.37 0.38 0.41 0.50 0.59 0.66 0.82 1.01 1.18 1.49 1.69 1.84 1.95 2.09 2.23 2.29 2.29 2.29 2.33 2.32 2.28 2.16 2.08 2.02 2.09 2.21 2.35 2.39 2.48 2.65 2.92 3.03 3.12 3.04 2.75 2.63 2.47 2.19 2.09 1.86 1.71 1.67 1.44
0.46 0.48 0.59 0.75 0.82 0.87 1.00 1.17 1.25 1.44 1.54 1.60 1.72 1.86 1.91 1.94 1.97 1.98 1.98 1.91 1.86 1.84 1.89 1.94 2.02 2.15 2.25 2.32 2.44 2.58 2.64 2.76 3.01 3.03 2.85 2.62 2.43 2.42 2.30 2.20 1.90 1.71 1.48
0.64 0.75 0.89 0.99 1.07 1.10 1.08 1.14 1.28 1.30 1.30 1.36 1.37 1.49 1.58 1.63 1.67 1.64 1.64 1.68 1.71 1.74 1.68 1.72 1.79 2.00 2.20 2.27 2.38 2.39 2.38 2.44 2.62 2.63 2.71 2.67 2.40 2.37 2.27 2.28 2.40 2.11 1.85
0.89 1.15 1.35 1.44 1.51 1.45 1.29 1.16 1.17 1.15 1.13 1.23 1.30 1.33 1.39 1.43 1.45 1.46 1.38 1.49 1.52 1.52 1.47 1.51 1.53 1.66 1.87 2.12 2.27 2.23 2.16 2.13 2.29 2.35 2.46 2.60 2.63 2.53 2.43 2.40 2.51 2.52 2.25
1.33 1.63 1.90 2.07 2.04 1.82 1.56 1.33 1.15 1.06 1.04 1.10 1.18 1.26 1.29 1.30 1.26 1.30 1.23 1.26 1.36 1.35 1.28 1.28 1.39 1.56 1.67 1.85 2.05 2.13 2.07 2.08 2.16 2.28 2.40 2.56 2.70 2.72 2.50 2.46 2.46 2.37 2.35
1.79 1.98 2.15 2.28 2.08 1.87 1.59 1.32 1.14 1.13 1.15 1.17 1.21 1.23 1.19 1.17 1.15 1.11 1.07 1.11 1.20 1.19 1.18 1.32 1.39 1.47 1.56 1.74 1.99 2.14 2.14 2.07 2.08 2.07 2.16 2.35 2.46 2.69 2.65 2.54 2.47 2.36 2.25
1.54 1.66 1.76 1.77 1.82 1.76 1.56 1.36 1.23 1.22 1.26 1.28 1.31 1.26 1.20 1.14 1.11 1.07 1.00 0.98 0.95 0.92 1.04 1.17 1.22 1.27 1.30 1.50 1.78 1.98 2.03 2.00 1.90 1.85 1.95 2.17 2.36 2.58 2.70 2.66 2.53 2.46 2.33
1.32 1.32 1.36 1.47 1.56 1.58 1.48 1.44 1.39 1.40 1.40 1.36 1.24 1.17 1.10 1.03 0.99 0.91 0.85 0.89 0.88 0.95 1.05 1.12 1.17 1.21 1.27 1.31 1.43 1.62 1.76 1.75 1.69 1.68 1.71 1.74 1.93 2.22 2.42 2.46 2.51 2.55 2.53
1.04 1.04 1.12 1.23 1.32 1.34 1.35 1.32 1.29 1.33 1.43 1.49 1.39 1.27 1.15 1.06 1.02 0.94 0.85 0.83 0.84 0.92 1.01 1.04 1.12 1.22 1.26 1.27 1.30 1.33 1.39 1.43 1.51 1.56 1.55 1.58 1.63 1.87 2.07 2.17 2.34 2.58 2.62
0.73 0.77 0.83 0.85 0.83 0.81 0.89 0.94 1.03 1.16 1.33 1.48 1.47 1.36 1.18 1.05 0.99 0.96 0.87 0.85 0.85 0.86 0.93 0.97 0.99 1.04 1.15 1.25 1.30 1.20 1.17 1.25 1.36 1.36 1.29 1.32 1.48 1.70 1.83 1.81 2.10 2.44 2.64
0.48 0.47 0.48 0.49 0.48 0.46 0.46 0.49 0.59 0.77 1.02 1.29 1.29 1.12 0.97 0.82 0.77 0.80 0.83 0.84 0.81 0.85 0.89 0.85 0.87 0.95 0.97 1.21 1.24 1.08 1.02 1.08 1.20 1.28 1.26 1.16 1.18 1.30 1.42 1.47 1.60 1.86 2.08
0.37 0.35 0.34 0.34 0.34 0.34 0.34 0.37 0.46 0.59 0.77 0.90 0.91 0.82 0.75 0.73 0.78 0.82 0.78 0.79 0.81 0.81 0.82 0.81 0.80 0.83 0.94 1.05 0.95 0.95 0.92 0.99 1.08 1.17 1.26 1.18 1.08 1.23 1.27 1.38 1.45 1.41 1.47
0.29 0.27 0.27 0.27 0.32 0.33 0.37 0.42 0.49 0.55 0.59 0.62 0.65 0.62 0.62 0.64 0.71 0.75 0.75 0.81 0.86 0.81 0.80 0.84 0.84 0.82 0.89 0.92 0.82 0.89 0.87 0.89 0.96 1.10 1.22 1.27 1.21 1.26 1.38 1.35 1.35 1.28 1.24
0.20 0.18 0.18 0.19 0.22 0.22 0.23 0.26 0.29 0.32 0.34 0.34 0.35 0.39 0.42 0.45 0.48 0.51 0.60 0.72 0.79 0.81 0.85 0.88 0.88 0.81 0.81 0.89 0.83 0.87 0.85 0.86 0.90 0.94 1.04 1.14 1.11 1.35 1.49 1.38 1.50 1.49 1.36
0.19 0.19 0.16 0.17 0.19 0.19 0.20 0.19 0.20 0.21 0.22 0.23 0.25 0.28 0.31 0.33 0.36 0.41 0.46 0.54 0.56 0.63 0.74 0.75 0.76 0.78 0.78 1.01 0.95 0.95 0.85 0.87 0.96 1.00 0.98 1.17 1.21 1.38 1.38 1.24 1.45 1.50 1.45
0.17 0.19 0.19 0.18 0.19 0.22 0.22 0.21 0.22 0.23 0.26 0.29 0.30 0.31 0.30 0.32 0.36 0.40 0.44 0.47 0.51 0.60 0.65 0.69 0.71 0.77 0.87 1.08 1.11 1.13 0.99 0.99 1.10 1.09 1.00 0.95 1.15 1.06 1.15 1.17 1.16 1.42 1.48
0.16 0.17 0.18 0.21 0.22 0.22 0.22 0.22 0.22 0.25 0.28 0.31 0.32 0.34 0.33 0.35 0.37 0.42 0.48 0.51 0.54 0.57 0.61 0.65 0.68 0.70 0.78 0.90 1.00 1.04 1.06 1.09 1.10 1.13 1.02 1.02 1.14 0.97 0.94 0.94 1.05 1.29 1.41
0.15 0.15 0.16 0.17 0.18 0.19 0.19 0.20 0.23 0.26 0.29 0.31 0.33 0.36 0.36 0.36 0.35 0.40 0.47 0.51 0.53 0.55 0.59 0.64 0.70 0.74 0.77 0.83 0.88 0.88 0.93 1.01 1.01 1.00 1.08 1.09 1.04 0.93 0.84 0.85 0.96 1.05 1.16
0.15 0.14 0.16 0.18 0.19 0.20 0.20 0.23 0.24 0.24 0.25 0.31 0.34 0.36 0.36 0.37 0.38 0.40 0.45 0.49 0.53 0.56 0.60 0.65 0.70 0.73 0.75 0.79 0.81 0.88 0.94 0.92 0.91 0.92 0.91 0.92 0.93 0.91 0.84 0.83 0.89 0.97 1.10
0.18 0.20 0.21 0.20 0.21 0.22 0.24 0.28 0.31 0.28 0.26 0.29 0.32 0.33 0.35 0.39 0.40 0.41 0.44 0.46 0.51 0.61 0.69 0.71 0.74 0.71 0.68 0.70 0.77 0.87 0.95 1.03 1.10 1.15 1.06 1.03 1.02 0.98 0.90 0.85 0.87 0.94 1.03
0.22 0.24 0.24 0.24 0.25 0.25 0.27 0.29 0.34 0.36 0.35 0.34 0.32 0.31 0.33 0.37 0.39 0.39 0.40 0.44 0.47 0.57 0.62 0.62 0.63 0.62 0.63 0.68 0.69 0.73 0.83 0.96 1.13 1.25 1.21 1.26 1.27 1.21 1.13 1.03 0.94 0.91 0.94